Hourly Data Report for November 17, 2020

L'ASSOMPTION
QUEBEC
Current Station Operator: ECCC - MSC

45°48'34.000" N
73°26'05.000" W
21.00 m
7014160
71524
WEW

Download Data

Hourly Data (November 2020)
Hourly Data Report for November 17, 2020
TIME
LST
Temp Definition
°C
Dew Point Definition
°C
Rel Hum Definition
%
Precip. Amount Definition
mm

Wind Dir Definition
10's deg

Wind Spd Definition
km/h
Visibility Definition
km
Stn Press Definition
kPa
Hmdx Definition


Wind Chill Definition


Weather Definition


00:00 1.7 -2.9 72 0.0 23 13   100.65     LegendNANA
01:00 1.5 -3.3 70 0.0 25 11   100.71     LegendNANA
02:00 1.2 -3.1 73 0.0 28 7   100.73     LegendNANA
03:00 0.0 -3.0 80 0.0 22 7   100.73   -2 LegendNANA
04:00 0.4 -2.3 82 0.0 23 5   100.74     LegendNANA
05:00 0.0 -2.9 81 0.0 24 5   100.74   -2 LegendNANA
06:00 0.1 -3.7 76 0.0 23 8   100.79     LegendNANA
07:00 -0.6 -4.1 77 0.0 24 8   100.83   -3 LegendNANA
08:00 0.3 -4.3 71 0.0 25 11   100.88     LegendNANA
09:00 1.1 -3.5 71 0.0 24 9   100.92     LegendNANA
10:00 1.9 -4.3 63 0.0 25 13   100.94     LegendNANA
11:00 1.9 -4.4 63 0.0 25 13   100.95     LegendNANA
12:00 0.9 -4.2 69 0.0 30 10   100.99     LegendNANA
13:00 1.8 -4.2 64 0.0 29 10   101.02     LegendNANA
14:00 1.3 -5.3 62 0.0 31 16   101.06     LegendNANA
15:00 1.2 -6.1 58 0.0 30 17   101.13     LegendNANA
16:00 0.5 -8.3 52 0.0 29 15   101.24     LegendNANA
17:00 -0.6 -8.9 53 0.0 30 15   101.36   -5 LegendNANA
18:00 -1.6 -8.8 58 0.0 32 19   101.45   -7 LegendNANA
19:00 -2.6 -10.3 56 0.0 32 21   101.58   -9 LegendNANA
20:00 -3.5 -10.3 59 0.0 31 17   101.70   -9 LegendNANA
21:00 -4.0 -10.4 61 0.0 33 16   101.79   -10 LegendNANA
22:00 -4.7 -10.9 62 0.0 30 14   101.90   -10 LegendNANA
23:00 -5.4 -11.5 62 0.0 32 10   101.96   -10 LegendNANA

Notes on Data Quality.

Legend

  • E = Estimated
  • M = Missing
  • NA = Not Available*
  • [empty] = Indicates an unobserved value
Date modified: